Weather History for Fort Campbell, KY

Change the Weather History Date:

Friday, May 11, 2012

  Actual Average Record
Temperature  
Mean Temperature 60 °F -  
Max Temperature 75 °F 76 °F 87 °F (2000)
Min Temperature 46 °F 55 °F 44 °F (1997)
Degree Days  
Heating Degree Days 5    
Growing Degree Days 10 (Base 50)    
Moisture  
Dew Point 45 °F    
Average Humidity 54    
Maximum Humidity 92    
Minimum Humidity 31    
Precipitation  
Precipitation 0.00 in - - ()
Sea Level Pressure  
Sea Level Pressure 30.12 in    
Wind  
Wind Speed 5 mph (ENE)    
Max Wind Speed 13 mph    
Max Gust Speed 18 mph    
Visibility 10 miles    
Events      
Averages and records for this station are not official NWS values.
T = Trace of Precipitation, MM = Missing Value Source: NWS Daily Summary

Daily Weather History Graph

Daily Weather History Graph

Search for Another Location

Airport:

Trip Planner

Search our weather history database for the weather conditions in past years. The results will help you decide how hot, cold, wet, or windy it might be!

Date:

Astronomy

May. 11, 2012 Rise Set
Actual Time 5:45 AM CDT 7:47 PM CDT
Civil Twilight 5:17 AM CDT 8:16 PM CDT
Nautical Twilight 4:42 AM CDT 8:51 PM CDT
Astronomical Twilight 4:04 AM CDT 9:28 PM CDT
Moon 12:27 AM CDT (5/11) 11:16 AM CDT (5/11)
Length of Visible Light 14h 59m
Length of Day
14h 01m
Waning Gibbous, 63% of the Moon is Illuminated
May 11
Waning Gibbous
May 12
Last Quarter
May 20
New
May 28
First Quarter
Jun 4
Full

Hourly Weather History & Observations

Time (CDT) Temp. Dew Point Humidity Pressure Visibility Wind Dir Wind Speed Gust Speed Precip Events Conditions
12:55 AM 54.1 °F 41.4 °F 62% 30.05 in 10.0 mi NE 5.8 mph - N/A   Clear
1:55 AM 54.3 °F 41.5 °F 62% 30.04 in 10.0 mi NE 6.9 mph - N/A   Clear
2:55 AM 51.6 °F 43.0 °F 72% 30.06 in 10.0 mi Calm Calm - N/A   Clear
3:55 AM 51.4 °F 42.6 °F 72% 30.07 in 10.0 mi Calm Calm - N/A   Clear
4:55 AM 48.2 °F 43.2 °F 83% 30.09 in 10.0 mi Calm Calm - N/A   Clear
5:55 AM 46.8 °F 44.4 °F 92% 30.10 in 10.0 mi Calm Calm - N/A   Clear
6:55 AM 51.4 °F 45.7 °F 81% 30.12 in 10.0 mi NE 5.8 mph - N/A   Clear
7:55 AM 58.3 °F 46.8 °F 66% 30.15 in 10.0 mi ENE 4.6 mph - N/A   Clear
8:55 AM 64.0 °F 46.8 °F 53% 30.15 in 10.0 mi East 8.1 mph - N/A   Clear
9:55 AM 69.1 °F 43.0 °F 39% 30.14 in 10.0 mi East 12.7 mph - N/A   Clear
10:55 AM 70.5 °F 42.4 °F 36% 30.15 in 10.0 mi ENE 11.5 mph 18.4 mph N/A   Clear
11:55 AM 72.3 °F 43.2 °F 35% 30.13 in 10.0 mi ENE 11.5 mph 18.4 mph N/A   Clear
12:55 PM 73.0 °F 40.8 °F 31% 30.14 in 10.0 mi East 11.5 mph 17.3 mph N/A   Mostly Cloudy
1:55 PM 74.3 °F 43.3 °F 33% 30.14 in 10.0 mi ESE 8.1 mph - N/A   Mostly Cloudy
2:55 PM 74.7 °F 43.0 °F 32% 30.14 in 10.0 mi South 5.8 mph - N/A   Scattered Clouds
3:55 PM 74.8 °F 42.6 °F 31% 30.13 in 10.0 mi Variable 4.6 mph - N/A   Partly Cloudy
4:55 PM 74.5 °F 41.9 °F 31% 30.12 in 10.0 mi East 9.2 mph - N/A   Clear
5:55 PM 73.6 °F 41.7 °F 32% 30.12 in 10.0 mi East 9.2 mph - N/A   Clear
6:55 PM 70.3 °F 48.7 °F 46% 30.12 in 10.0 mi East 3.5 mph - N/A   Clear
7:55 PM 65.7 °F 47.7 °F 52% 30.12 in 10.0 mi NE 6.9 mph - N/A   Clear
8:55 PM 64.0 °F 48.7 °F 57% 30.14 in 10.0 mi NE 6.9 mph - N/A   Clear
9:55 PM 63.3 °F 48.0 °F 57% 30.16 in 10.0 mi ENE 4.6 mph - N/A   Clear
10:55 PM 61.9 °F 48.6 °F 62% 30.17 in 10.0 mi Calm Calm - N/A   Clear
11:55 PM 58.8 °F 49.5 °F 71% 30.17 in 10.0 mi NE 3.5 mph - N/A   Clear